Regional Weather Roundup
Issued by NWS San Angelo, TX

Home | Current Version | Previous Version | Text Only | Print | Product List | Glossary On
Versions: 1 2 3 4 5 6 7 8 9 10 11 12 13 14 15 16 17 18 19 20 21 22 23 24 25 26 27 28 29 30 31 32 33 34 35 36 37 38 39 40 41 42 43 44 45 46 47 48 49 50
000
ASUS44 KSJT 151010
RWRSJT
WEST CENTRAL TEXAS REGIONAL WEATHER ROUNDUP
NATIONAL WEATHER SERVICE SAN ANGELO TX
400 AM CST FRI DEC 15 2017

NOTE: "FAIR" INDICATES FEW OR NO CLOUDS BELOW 12,000 FEET WITH NO
SIGNIFICANT WEATHER AND/OR OBSTRUCTIONS TO VISIBILITY.

TXZ049-054-064>066-071>073-076>078-098-099-113-114-127-128-139-140-
154-155-168>170-151100
...LOCATIONS ACROSS WEST CENTRAL TEXAS...

CITY           SKY/WX    TMP DP  RH WIND       PRES   REMARKS
SAN ANGELO     CLOUDY    37  26  64 W7        30.30R WCI  32
ABILENE        CLEAR     30  23  75 CALM      30.29R
DYESS AFB      CLEAR     34  25  69 NW5       30.29R WCI  29
JUNCTION       CLOUDY    43  28  55 CALM      30.28R
SWEETWATER     CLEAR     37  27  67 NW8       30.31F WCI  30
BROWNWOOD      MOCLDY    32  23  69 CALM      30.29R
COLEMAN        CLOUDY    35  25  66 W6        30.29R WCI  30
SONORA         MOCLDY    39  27  60 CALM      30.34R
OZONA          FAIR      36  28  75 CALM      30.33R
BRADY          NOT AVBL
$$

TEXAS PANHANDLE/OKLAHOMA PANHANDLE

CITY           SKY/WX    TMP DP  RH WIND       PRES   REMARKS
AMARILLO       CLEAR     25  22  88 W8        30.30S WCI  16
BORGER         CLEAR     27  22  81 W5        30.30F WCI  22
CANADIAN       CLEAR     27  24  89 CALM      30.29S
DALHART        CLEAR     23  19  85 W10       30.29F WCI  12
DUMAS          SUNNY     22  18  85 W7        30.29S WCI  14
GUYMON         NOT AVBL
HEREFORD       SUNNY     22  20  91 MISG      30.31F
PAMPA          SUNNY     24  22  94 W8        30.29S WCI  14
PERRYTON       CLEAR     22  19  89 W8        30.27S WCI  12
$$

SOUTHERN PANHANDLE/SOUTH PLAINS/ROLLING PLAINS

CITY           SKY/WX    TMP DP  RH WIND       PRES   REMARKS
LUBBOCK        CLEAR     27  22  81 NW7       30.31R WCI  19
SNYDER         CLEAR     36  26  66 N7        30.31S WCI  30
CHILDRESS      CLEAR     32  24  72 N7        30.31S WCI  26
SEMINOLE       CLOUDY    31  25  78 NW6       30.33S WCI  25
$$

PERMIAN BASIN

CITY           SKY/WX    TMP DP  RH WIND       PRES   REMARKS
MIDLAND        MOCLDY    33  26  75 N7        30.31S WCI  27
ODESSA         CLOUDY    33  26  75 N7        30.31F WCI  27
WINK           CLOUDY    30  24  78 N7        30.32S WCI  23
$$

FAR WEST/SOUTHWEST MOUNTAINS/TRANS PECOS

CITY           SKY/WX    TMP DP  RH WIND       PRES   REMARKS
ALPINE         MOSUNNY   33  24  69 N6        30.37R WCI  27
DRYDEN           N/A     44  31  60 N6        30.30R
EL PASO        PTCLDY    38  21  50 N5        30.28R WCI  34
FORT STOCKTON  NOT AVBL
GUADALUPE PASS CLEAR     32  22  66 NE29      30.28R WCI  18
MARFA          NOT AVBL
PECOS          SUNNY     30  25  83 W6        30.36R WCI  24
$$

DALLAS/FORT WORTH METROPLEX

CITY           SKY/WX    TMP DP  RH WIND       PRES   REMARKS
DFW AIRPORT    PTCLDY    40  27  59 NW9       30.22S WCI  34
FTW MEACHAM    CLEAR     39  29  67 NW3       30.25R
DAL-EXECUTIVE  PTCLDY    39  29  67 NW6       30.23R WCI  35
GRAND PRAIRIE  PTCLDY    42  26  54 W6        30.26R WCI  38
ADDISON        CLEAR     38  29  70 CALM      30.25R
MESQUITE       MOSUNNY   39  27  62 N5        30.24S WCI  36
LANCASTER      MOSUNNY   37  27  67 W3        30.25R
$$

NORTH CENTRAL TEXAS

CITY           SKY/WX    TMP DP  RH WIND       PRES   REMARKS
SHRMAN/DENISON SUNNY     33  26  77 CALM      30.24F
GAINESVILLE    PTCLDY    33  26  74 NW9       30.26S WCI  25
BRIDGEPORT     SUNNY     38  29  70 W8        30.28R WCI  32
DENTON         PTCLDY    29  25  85 W8        30.25R WCI  21
WAXAHACHIE     PTSUNNY   37  30  75 CALM      30.25R
GRANBURY       SUNNY     35  26  69 CALM      30.28R
$$

WESTERN NORTH TEXAS

CITY           SKY/WX    TMP DP  RH WIND       PRES   REMARKS
WICHITA FALLS  PTCLDY    34  25  69 NW10      30.29R WCI  26
VERNON         SUNNY     38  23  55 N12       30.31R WCI  30
BRECKENRIDGE   SUNNY     36  27  70 NW6       30.28R WCI  31
COMANCHE       PTCLDY    37  28  67 NW5       30.28R WCI  34
$$

CENTRAL AND SOUTH CENTRAL TEXAS

CITY           SKY/WX    TMP DP  RH WIND       PRES   REMARKS
AUSTIN/BERGSTM CLOUDY    50  29  44 N12       30.24S
WACO           CLOUDY    40  28  62 CALM      30.27R
HILLSBORO      CLOUDY    39  27  61 N3        30.24R
TEMPLE         CLOUDY    41  30  65 NW6       30.27R WCI  37
KILLEEN-GRAY   CLOUDY    43  28  56 W3        30.25R
FORT HOOD      CLOUDY    43  28  56 CALM      30.23R
GEORGETOWN     CLOUDY    46  30  53 N6        30.28R
LAGO VISTA     CLOUDY    46  30  52 N7        30.25S
SAN MARCOS     CLOUDY    49  32  52 N8        30.25R
NEW BRAUNFELS  CLOUDY    48  34  58 N7        30.23R
RANDOLPH AFB   CLOUDY    46  40  80 NW6       30.25R
SAN ANTONIO    CLOUDY    48  35  60 N7        30.26R
STINSON        CLOUDY    49  41  74 CALM      30.24R
PLEASANTON     NOT AVBL
LA GRANGE      CLOUDY    51  31  47 N9        30.21S
GIDDINGS       CLOUDY    48  28  46 N12       30.23R
$$

EAST TEXAS

CITY           SKY/WX    TMP DP  RH WIND       PRES   REMARKS
PARIS          CLEAR     32  25  75 N3        30.22F
CLARKSVILLE    NOT AVBL
TYLER          PTCLDY    36  28  73 CALM      30.22S
LONGVIEW       PTCLDY    36  30  79 NW5       30.22R WCI  32
PALESTINE      CLOUDY    40  30  65 NW5       30.24S WCI  37
NACOGDOCHES    CLOUDY    42  30  62 N6        30.21R WCI  38
$$

TEXAS HILL COUNTRY AND EDWARDS PLATEAU

CITY           SKY/WX    TMP DP  RH WIND       PRES   REMARKS
LLANO          CLOUDY    45  30  57 CALM      30.31S
HORSESHOE BAY  FAIR      47  30  51 CALM      30.28R
KERRVILLE      CLOUDY    46  25  44 N7        30.27R
FREDERICKSBRG  CLOUDY    45  26  47 N7        30.26S
ROCKSPRINGS    NOT AVBL
HONDO          CLOUDY    51  33  50 N8        30.26R
UVALDE         DRIZZLE   49  35  58 N6        30.27F
DEL RIO        CLOUDY    47  43  86 NW3       30.28S
$$

SOUTHEAST TEXAS

CITY           SKY/WX    TMP DP  RH WIND       PRES   REMARKS
COLLEGE STN    CLOUDY    48  29  47 N8        30.23R
CALDWELL       CLOUDY    46  28  49 N7        30.24R
CROCKETT         N/A     43  28  56 N7        30.24S WCI  39
BRENHAM        CLOUDY    50  30  47 N9G17     30.22R
HUNTSVILLE     CLOUDY    46  30  53 N6        30.21R
CONROE         CLOUDY    48  31  51 N7        30.20R
HOUSTON BUSH   CLOUDY    51  33  50 N14       30.17R
HOUSTON HOBBY  MOCLDY    51  35  54 N16       30.16R
PERLAND        CLOUDY    52  35  52 N12       30.17R
WHARTON        PTSUNNY   51  32  48 N9        30.18R
$$

THE UPPER TEXAS COAST

CITY           SKY/WX    TMP DP  RH WIND       PRES   REMARKS
ORANGE         CLOUDY    49  43  81 N8        30.14S
PORT ARTHUR    CLOUDY    49  39  68 N15       30.12R
GALVESTON      CLOUDY    55  42  61 N20G25    30.14R
ANGLETON       PTCLDY    53  36  52 N15       30.14R
BAY CITY       CLOUDY    54  38  54 N15       30.14R
$$

TEXAS COASTAL BEND, RIO GRANDE PLAINS DEEP SOUTH TEXAS

CITY           SKY/WX    TMP DP  RH WIND       PRES   REMARKS
VICTORIA       CLOUDY    53  31  42 N16       30.17S
BEEVILLE       LGT RAIN  51  35  54 N13       30.18S
ROCKPORT       LGT RAIN  50  43  77 N14       30.15R
PORT ARANSAS   NOT AVBL
PORT LAVACA    CLOUDY    51  38  60 N14       30.16S
CORPUS CHRISTI RAIN      50  45  83 N13       30.15S
KINGSVILLE NAS LGT RAIN  50  48  93 N9        30.16R
COTULLA        LGT RAIN  51  36  56 NE13G25   30.24R
LAREDO         LGT RAIN  50  43  77 MISG        N/A
BROWNSVILLE    CLOUDY    60  53  77 N17G25    30.05S
PORT ISABEL    CLOUDY    57  53  86 N20G29    30.06R
HEBBRONVILLE   DRIZZLE   48  44  85 N10       30.19R
MCALLEN        LGT RAIN  55  50  83 N20       30.10R
WESLACO        LGT RAIN  53  49  84 N12G20    30.09R
FALFURRIAS     CLOUDY    51  45  80 N12G18    30.15S
EDINBURG       LGT RAIN  54  49  85 N14       30.12R
$$




USA.gov is the U.S. government's official web portal to all federal, state and local government web resources and services.